www.pogodaiklimat.ru
ПОГОДА в Пешном
Время
(UTC), дата
09 27.07
12 27.07
15 27.07
18 27.07
21 27.07
00 28.07
03 28.07
06 28.07
09 28.07
12 28.07
15 28.07
18 28.07
21 28.07
00 29.07
03 29.07
06 29.07
09 29.07
12 29.07
15 29.07
18 29.07
21 29.07
00 30.07
03 30.07
06 30.07
09 30.07
12 30.07
15 30.07
21 30.07
00 31.07
03 31.07
06 31.07
09 31.07
12 31.07
15 31.07
18 31.07
21 31.07
00 1.08
03 1.08
06 1.08
09 1.08
12 1.08
15 1.08
18 1.08
21 1.08
00 2.08
03 2.08
06 2.08
09 2.08
12 2.08
18 2.08
03 3.08
Ветер
(напр.,м/с)
Видим. Явления Облачность Т
(С)
Тd
(С)
f
(%)
Тe
(С)
Тes
(С)
Комфортность P
(гПа)
Po
(гПа)
Тmin
(С)
Tmax
(С)
R
(мм)
R24
(мм)
S
(см)
СВ 2 10 км ясно +31.7 +2.1 15 +29 +42 жарко 1014.1 1016.9
С 6 10 км ясно +32.8 +1.5 14 +30 +33 жарко 1012.7 1015.5
С 6 10 км ясно +32.2 +2.5 15 +29 +30 жарко 1012.7 1015.4 +34.1
С 2 н/о 3/0
[Ac cuf]
+23.5 +2.3 25 +23 +23 комфорт 1014.3 1017.1 +34.1
С 2 н/о 3/0
[Ac cuf]
+17.7 +2.7 37 +18 +18 1014.3 1017.2
С 2 н/о 6/0
[Ac lent Ci fib]
+14.6 +3.4 47 +14 +14 1014.8 1017.7
штиль 0 10 км 6/0
[Ac lent Ci]
+18.0 +2.9 36 +18 +19 1015.4 1018.3
С 2 10 км 3/0
[Ci sp]
+28.1 +5.1 23 +27 +34 жарко 1015.8 1018.6 +13.9
С 2 10 км 3/3 1000 м
[Cu hum Ac cuf]
+30.1 +6.1 22 +29 +38 жарко 1015.4 1018.2
ЮЗ 4 10 км 4/3 1000 м
[Cu hum Ci sp]
+29.3 +11.3 33 +30 +34 жарко 1014.6 1017.4
ЮЗ 2 10 км 6/3 1000 м
[Cu hum Ac cuf Ci fib]
+27.8 +15.4 47 +31 +32 душно 1014.1 1016.9 +32.7
штиль 0 н/о ясно +22.6 +18.8 79 +28 +28 душно 1014.6 1017.4 +32.7
СВ 2 н/о ясно +20.0 +7.8 45 +22 +22 комфорт 1015.0 1017.9
СВ 2 н/о ясно +18.9 +6.2 43 +20 +20 1014.7 1017.6
С 2 10 км 6/0
[Cs]
+19.2 +8.6 50 +21 +22 комфорт 1015.1 1018.0
СВ 2 10 км 8/0
[Ac trans]
+28.2 +7.7 27 +28 +32 жарко 1015.7 1018.5 +16.7
С 2 10 км 9/6 600 м
[Cb calv Ac cast]
+30.0 +6.8 23 +29 +31 жарко 1015.5 1018.3
З 4 10 км 9/8 600 м
[Cu hum Ac cast Cs]
+30.1 +7.6 24 +29 +30 жарко 1014.8 1017.6
З 2 10 км 9/6 600 м
[Cb calv Ac trans Ci]
+28.0 +15.2 46 +31 +31 душно 1013.6 1016.4 +32.6
З 2 н/о 8/6 600 м
[Cb calv Ac cast]
+23.6 +15.3 60 +27 +27 жарко 1014.1 1016.9 +32.6
С 2 н/о 8/6 600 м
[Cb calv Ac As]
+20.4 +5.1 37 +22 +22 комфорт 1014.1 1017.0
С 2 н/о 3/3 600 м
[Cb calv]
+18.0 +6.2 46 +19 +19 1014.1 1017.0
С 2 10 км 4/4 600 м
[Cb calv]
+17.4 +4.3 42 +18 +19 1014.5 1017.4
штиль 0 10 км 3/0
[Ci sp]
+27.8 +5.1 23 +27 +37 жарко 1015.7 1018.5 +17.1
ЮЗ 2 10 км 6/6 1000 м
[Cu med, cong]
+29.9 +11.2 31 +30 +35 жарко 1015.2 1018.0
Ю 2 10 км 6/4 600 м
[Cb calv Ac cast]
+29.5 +14.1 39 +31 +36 жарко 1014.7 1017.5
Ю 2 10 км 4/3 600 м
[Cb calv Ac cast Ci ing]
+28.2 +18.2 55 +33 +34 очень
душно
1014.4 1017.2 +31.8
ЮЗ 4 н/о ясно +24.6 +21.9 85 +32 +32 очень
душно
1015.2 1018.0
Ю 2 н/о ясно +23.3 +20.8 86 +31 +31 очень
душно
1014.7 1017.5
З 2 10 км 4/0
[Ci fib]
+23.6 +15.9 62 +27 +28 жарко 1014.8 1017.6
З 2 10 км 4/0
[Cs]
+28.4 +11.2 34 +29 +36 жарко 1014.8 1017.6 +19.3
Ю 4 10 км 4/3 1000 м
[Cu hum Ci fib]
+30.0 +15.1 40 +32 +38 жарко 1014.0 1016.8
Ю 6 10 км 4/1 1000 м
[Cu hum Cs]
+29.8 +18.9 52 +35 +38 очень
душно
1012.7 1015.5
Ю 4 10 км 6/0
[Cs]
+27.9 +18.1 55 +32 +33 душно 1011.8 1014.6 +32.0
Ю 2 н/о 4/0
[Ac cuf Ci fib]
+22.9 +19.2 80 +29 +29 очень
душно
1011.6 1014.4 +32.0
Ю 2 н/о 8/0
[Cs]
+21.4 +20.3 93 +27 +27 душно 1011.4 1014.2
штиль 0 н/о дымка 4/0
[Cs]
+19.8 +19.0 95 +23 +23 комфорт 1010.4 1013.3
штиль 0 4000 м в посл. час туман 3/0
[Ci fib]
+18.2 +16.4 89 +19 +20 1009.9 1012.8
ЮВ 4 10 км ясно +28.3 +17.4 52 +32 +38 душно 1009.4 1012.2 +15.5
ЮВ 8 10 км ясно +30.1 +15.6 41 +33 +35 душно 1008.1 1010.9
ЮВ 8 10 км 3/0
[Ci sp]
+32.2 +15.1 36 +34 +36 душно 1006.8 1009.5
ЮЗ 2 10 км 3/0
[Ci fib]
+30.3 +19.3 52 +36 +38 очень
душно
1005.2 1008.0 +34.1
штиль 0 н/о 4/0
[Ac cuf Ci fib]
+21.6 +19.4 87 +27 +27 душно 1005.5 1008.3 +34.1
штиль 0 н/о ясно +20.7 +19.3 92 +25 +25 комфорт 1005.7 1008.5
В 2 н/о ясно +17.4 +15.7 90 +18 +18 1005.3 1008.2
В 2 10 км 3/0
[Ac cuf Ci fib]
+18.8 +15.2 80 +20 +21 1005.9 1008.8 +16.0
ЮЗ 2 10 км 8/0 600 м
[Ac trans]
+30.5 +10.4 29 +30 +35 жарко 1006.6 1009.1 +16.0
З 4 10 км 10/6 600 м
[Cb calv Ac trans]
+29.1 +15.1 43 +32 +33 душно 1007.1 1009.9
З 4 10 км 10/8 600 м
[Cb calv Ac As]
+29.7 +14.9 41 +32 +33 душно 1007.1 1009.9
С 4 н/о 8/6 600 м
[Cb calv Ac cast]
+27.2 +15.1 48 +30 +30 душно 1007.2 1010.0 +33.6
СЗ 8 10 км 10/10 600 м
[Cb calv]
+24.2 +13.2 50 +26 +26 жарко 1006.6 1009.4
Местоположение метеостанции Пешной (Атырауская область, Казахстан): широта 56.92 долгота 41.68 высота над уровнем моря -21 м.
В архиве по умолчанию представлена погода в Пешном за последнюю неделю. Архивные данные за месяц целиком и за предыдущие месяцы, начиная с января 2011 года, Вы можете получить, выбрав интересующий диапазон дат из раскрывающегося списка и нажав кнопку "Найти!".
*Определитесь, кто Вы:
Внимание! Время в таблицах - всемирное. Для получения местного времени необходимо прибавить поправку, которая равна 5 ч.
Смотрите также архив погоды в соседних городах и на ближайших метеорологических станциях:
Партнеры нашего сайта:      
Пояснения к столбцам:
  • Ветер - указаны скорость ветра в м/с - средняя за 10 мин, порывы в срок и между сроками (в фигурных скобках) и направление, откуда дует ветер: С - северный,
  • СВ - северо-восточный, В - восточный, ЮВ - юго-восточный, Ю - южный, ЮЗ - юго-западный, З - западный, СЗ - северо-западный.
  • Видимость - горизонтальная дальность видимости в метрах или километрах. При видимости от 1 до 10 км при отсутствии осадков обычно наблюдается дымка, при ухудшении видимости до 1 км и менее - туман. В сухую погоду видимость может ухудшаться дымом, пылью или мглою.
  • Явления - указаны атмосферные явления, наблюдавшиеся в срок или в последний час перед сроком; фигурными скобками обозначены явления, наблюдавшиеся между сроками (за 1-3 часа до срока); квадратными скобками обозначены град или гололедные отложения с указанием их диаметра в мм.
  • Облачность - указаны через наклонную черту общая и нижняя облачность в баллах и высота нижней границы облаков в метрах; квадратными скобками обозначены формы облаков: Ci - перистые, Cs - перисто-слоистые, Cc - перисто-кучевые, Ac - высококучевые, As - высокослоистые, Sc - слоисто-кучевые, Ns - слоисто-дождевые, Cu - кучевые, Cb - кучево-дождевые. Подробнее классификацию облаков см. в Атласе облаков (PDF).
  • T - Температура воздуха - температура, измеренная на высоте 2 м над землей.
  • Td - Температура точки росы - температура, при понижении до которой содержащийся в воздухе водяной пар достигнет насыщения.
  • f - Относительная влажность воздуха - влажноcть воздуха, измеренная на высоте 2 м над землей.
  • Te - Эффективная температура - температура, которую ощущает одетый по сезону человек в тени. Характеристика душности погоды. При расчете учитывается влияние влажности воздуха и скорости ветра на теплоощущения человека.
  • Tes - Эффективная температура на солнце - температура, которую ощущает человек, с поправкой на солнечный нагрев. Характеристика знойности погоды. Зависит от высоты солнца над горизонтом, облачности и скорости ветра. Ночью, в пасмурную погоду, а также при ветре 12 м/с и более поправка равна нулю.
  • P - Атмосферное давление - приведенное к уровню моря атмосферное давление.
  • Po - Атмосферное давление - измеренное на уровне метеостанции атмосферное давление.
  • Tmin - Минимальная температура - минимум температуры воздуха на высоте 2 м над землей.
  • Tmax - Максимальная температура - максимум температуры воздуха на высоте 2 м над землей.
  • R - Количество осадков - Количество выпавших осадков за период времени, мм. При наведении курсора мыши на число - период времени, за который выпало указанное количество осадков.
  • R24 - Количество осадков - Количество выпавших осадков за 24 часа, мм.
  • S - Снежный покров - Высота снежного покрова, см. При наведении курсора мыши на число - состояние снежного покрова и степень покрытия местности в баллах.